Location: Houston
(29.7630°N, 95.3630°W)
Time: 01:16:43
(UTC-05:00)

Daily predictions for brighter satellites

Satellite Brightness Start Highest point End
(mag) Time Altitude Azimuth Time Altitude Azimuth Time Altitude Azimuth
Cosmos 2263 Rocket 3.9 04:11:24 28° E 04:11:24 28° E 04:15:10 10° NE
ADEOS II 4.0 04:08:20 10° NE 04:11:26 26° ENE 04:11:26 26° ENE
Cosmos 1607 4.2 04:38:46 65° ENE 04:38:46 65° ENE 04:44:19 10° NNE
ATLAS 3B R/B 4.4 04:33:11 15° SSE 04:38:12 29° ESE 04:44:18 10° NE
CZ-3 R/B 3.7 04:35:16 41° SW 04:44:10 61° SSE 04:52:42 10° E
Kakehashi 4.0 04:49:32 58° S 04:49:32 58° S 04:58:41 10° ESE
ISS -0.6 04:54:23 14° E 04:54:23 14° E 04:55:07 10° E
Cosmos 1975 Rocket 4.4 04:54:22 37° NE 04:54:22 37° NE 04:57:15 10° NNE
Palapa 6 Rocket 4.5 04:59:48 40° SSE 04:59:48 40° SSE 05:05:11 10° ESE
Atlas 2A Centaur Rocket 3.7 04:57:36 59° WSW 04:59:08 72° S 05:34:01 10° ESE
Cosmos 1741 Rocket 4.1 04:59:45 69° NE 04:59:45 69° NE 05:04:24 10° NNE
ASTEX 1 4.0 05:01:19 10° N 05:04:46 46° N 05:04:46 46° N
SEDSat Delta rocket 3.5 05:08:53 80° WSW 05:09:10 83° SSW 05:14:41 10° ESE
Okean 1 4.4 05:11:49 38° NNE 05:11:49 38° NNE 05:14:22 10° N
Cosmos 972 Rocket 4.4 05:07:16 10° NNW 05:14:13 80° WSW 05:20:26 10° S
Meteor 1-18 Rocket 4.2 05:13:49 49° SSW 05:15:29 82° W 05:21:27 10° N
Cosmos 1850 Rocket 4.1 05:21:25 57° WNW 05:21:25 57° WNW 05:26:26 10° N
CZ-4B R/B 3.8 05:19:34 10° N 05:22:09 37° N 05:22:09 37° N
Cosmos 1603 3.6 05:18:17 10° NNW 05:23:51 60° WSW 05:29:25 10° S
CZ-4B DEB 4.2 05:20:23 10° NNE 05:25:51 81° ESE 05:30:27 15° S
Meteor 1-31 Rocket 4.1 05:24:57 10° NNE 05:28:36 39° E 05:32:11 10° SSE
Atlas Centaur 2 1.9 05:28:50 52° WSW 05:30:18 88° S 05:35:11 10° E
GOES 2 Rocket 2.8 05:38:34 58° WSW 05:39:16 74° S 05:43:46 10° E
Intercosmos 25 Rocket 3.6 05:34:05 10° S 05:39:54 84° W 05:43:41 10° N
CZ-4B R/B 4.5 05:36:36 10° NNE 05:40:28 56° E 05:44:31 10° S
Okean O Rocket 1.6 05:36:33 10° N 05:40:47 54° WNW 05:41:31 48° WSW
USA 238 DEB 3.9 05:37:56 10° SSW 05:44:43 75° ESE 05:51:42 10° NNE
USA 238 3.9 05:37:58 10° SSW 05:44:51 75° ESE 05:51:48 10° NNE
Cosmos 1844 Rocket 3.9 05:41:11 10° S 05:46:27 42° ESE 05:51:46 10° NE
Meteor 1-12 Rocket 4.4 05:41:02 10° N 05:47:06 88° E 05:53:06 10° S
Cosmos 1743 3.6 05:44:54 10° N 05:48:43 51° E 05:52:30 10° SSE
Cosmos 1943 3.1 05:43:10 10° NNW 05:48:51 76° WSW 05:54:29 10° SSE
PAYLOAD B 4.3 05:43:43 10° N 05:49:06 55° WNW 05:53:31 15° SSW
Cosmos 1570 Rocket 4.0 05:45:54 10° NNW 05:51:14 89° E 05:56:33 10° SSE
IRS-1C Rocket 4.0 05:46:11 10° N 05:51:26 68° WNW 05:56:39 10° SSW
ADEOS II 3.1 05:48:11 10° NNW 05:52:23 25° WNW 05:52:23 25° WNW
Cosmos 2263 Rocket 3.1 05:53:09 27° W 05:54:05 28° WNW 05:58:55 10° N
Meteor 1-13 Rocket 4.3 05:49:11 10° S 05:55:06 88° E 06:01:05 10° N
Cosmos 2208 Rocket 4.0 05:50:42 10° NNW 05:56:00 88° ENE 06:01:12 10° SSE
ASC 2 Rocket 3.7 05:54:49 28° SW 05:56:11 37° S 06:00:03 10° ESE
Cosmos 2266 Rocket 4.3 05:50:35 10° NNW 05:56:36 44° W 06:02:36 10° SSW
ASTRO E2 3.9 05:56:01 21° SSW 05:58:01 35° SSE 06:01:42 10° E
Cosmos 1437 Rocket 3.1 05:56:49 10° NNW 06:00:33 42° W 06:04:20 10° SSW
Meteor 2-11 Rocket 4.3 05:56:56 10° S 06:03:00 77° W 06:09:05 10° N
Cosmos 2084 3.5 06:02:50 18° NW 06:05:23 43° WSW 06:09:14 10° S
Skynet4D Del rocket 3.9 06:04:18 21° WSW 06:08:02 58° S 06:13:19 10° E
OAO 3 Rocket 4.5 06:07:02 19° SW 06:08:03 21° SW 06:11:31 10° SSE
Delta 2 Rocket 4.1 06:05:38 22° WSW 06:09:23 84° NNW 06:15:13 10° ENE
GPS 2-14 Rocket1 4.4 06:12:34 14° SW 06:14:37 21° S 06:17:30 10° SE
Meteor PRIRODA 4.4 06:12:14 10° N 06:15:33 32° WNW 06:18:37 11° SW
GPS 2-05 Rocket1 3.2 06:13:45 17° NW 06:15:51 49° NNE 06:18:49 10° E
Cosmos 1244 Rocket 4.5 06:11:18 10° N 06:17:37 71° W 06:23:55 10° S
NOSS 3-2 (C) 4.4 06:16:18 10° S 06:21:50 47° ESE 06:27:44 10° NE
Cosmos 1844 4.0 06:18:38 10° S 06:24:09 72° ESE 06:29:46 10° NNE
Meteor 2-4 Rocket 3.6 06:20:31 10° SSW 06:25:56 66° W 06:31:33 10° N
BREEZE-M DEB (TANK) 4.4 06:27:02 12° SW 06:28:17 14° SSW 06:30:51 10° S
ATLAS 3B R/B 3.2 06:21:30 10° SW 06:28:38 47° WNW 06:35:34 10° NNE
ISS -2.4 06:27:08 15° W 06:28:50 21° SW 06:31:24 10° S
Okean 2 4.2 06:26:10 10° S 06:30:09 56° E 06:34:09 10° NNE
CZ-4B R/B 4.2 06:27:04 10° NNW 06:31:14 24° WNW 06:35:25 10° WSW
Cosmos 332 Rocket 3.9 06:29:24 10° NNW 06:34:02 50° WSW 06:38:38 10° S
Meteor 1-4 Rocket 2.7 06:31:07 10° NNW 06:34:27 46° W 06:37:45 10° SSW
Cosmos 1544 Rocket 4.4 06:32:09 10° NNW 06:35:49 27° W 06:39:28 10° SSW
Cosmos 371 Rocket 3.4 06:35:01 10° NNW 06:39:45 54° WSW 06:44:27 10° S
Okean-O 2.8 06:36:15 10° N 06:40:33 51° WNW 06:44:50 10° SSW
Cosmos 1975 4.5 06:39:37 10° NW 06:41:54 15° W 06:44:12 10° WSW
Cosmos 1455 Rocket 4.0 06:40:17 10° NW 06:43:48 24° W 06:47:18 10° SW
ATLAS CENTAUR R/B 2.0 06:41:23 10° SSW 06:45:20 55° ESE 06:49:06 10° NE
H-II Stage 2 3.8 06:44:53 10° WSW 06:47:13 37° S 06:53:28 10° ESE
